Regional Weather Roundup
Issued by NWS Portland, ME

Current Version | Previous Version | Text Only | Print | Product List | Glossary On
Versions: 1 2 3 4 5 6 7 8 9 10 11 12 13 14 15 16 17 18 19 20 21 22 23 24 25 26 27 28 29 30 31 32 33 34 35 36 37 38 39 40 41 42 43 44 45 46 47 48 49 50
000 ASUS41 KGYX 220510 RWRGYX WEATHER ROUNDUP FOR MAINE AND NEW HAMPSHIRE NATIONAL WEATHER SERVICE GRAY ME 100 AM EDT SUN OCT 22 2017 MEZ002-005-006-010-012-015-018-020-021-024-026-027-029-220600- MAINE CITY SKY/WX TMP DP RH WIND PRES REMARKS PORTLAND CLOUDY 51 48 89 CALM 30.32R BAR HARBOR CLOUDY 47 43 86 CALM 30.34R WISCASSET PTCLDY 47 45 93 CALM 30.33S ROCKLAND CLOUDY 45 44 97 CALM 30.32S FRYEBURG NOT AVBL LEWISTONAUBURN PTCLDY 45 43 93 CALM 30.32S AUGUSTA MOCLDY 52 46 80 CALM 30.32S WATERVILLE MOCLDY 49 45 86 CALM 30.30S BANGOR CLOUDY 50 43 77 CALM 30.34R GREENVILLE N/A 50 43 77 E5 30.31S MILLINOCKET CLOUDY 49 32 52 NE5 30.38R HOULTON CLOUDY 34 32 92 CALM 30.38R PRESQUE ISLE MOCLDY 31 30 96 CALM 30.41R FRENCHVILLE PTCLDY 38 22 52 CALM 30.39R CARIBOU PTCLDY 37 28 70 N3 30.39R $$ NHZ002-005-008-009-011-012-014-220600- NEW HAMPSHIRE CITY SKY/WX TMP DP RH WIND PRES REMARKS PORTSMOUTH MOCLDY 57 48 73 NW3 30.30S ROCHESTER CLOUDY 55 46 71 CALM 30.31S NASHUA CLOUDY 50 47 89 CALM 30.33S MANCHESTER PTCLDY 53 48 83 CALM 30.31S CONCORD PTCLDY 48 45 89 CALM 30.33S LACONIA PTCLDY 50 48 93 CALM 30.33S PLYMOUTH FAIR 44 44 97 CALM 30.34S BERLIN CLOUDY 44 42 93 CALM 30.33S WHITEFIELD CLOUDY 44 41 89 CALM 30.34S JAFFREY PTCLDY 47 46 97 S3 30.35S KEENE CLOUDY 44 43 96 CALM 30.36R LEBANON PTCLDY 47 44 90 CALM 30.34S MT WASHINGTON CLOUDY 50 25 37 N9 N/A $$ VTZ005-007-008-220600- VERMONT CITY SKY/WX TMP DP RH WIND PRES REMARKS ST JOHNSBURY N/A 48 46 93 MISG 30.33R BURLINGTON CLEAR 51 47 86 CALM 30.31R $$ MAZ007-012-024-CTZ003-RIZ002-NYZ038-NYZ072-220600- SOUTHERN NEW ENGLAND AND NY CITY SKY/WX TMP DP RH WIND PRES REMARKS BOSTON CLOUDY 58 48 69 SW5 30.32S WORCESTER CLOUDY 61 37 41 W9 30.35S NANTUCKET PTCLDY 60 58 92 SW9 30.36S PROVIDENCE PTCLDY 53 49 86 SW5 30.35R HARTFORD CLOUDY 47 45 93 CALM 30.35R ALBANY PTCLDY 47 44 90 CALM 30.34S NEW YORK CITY MOCLDY 64 47 53 CALM 30.35S $$ ANZ081-ANZ082-ANZ150-NHZ014-MEZ023>029-220600- COASTAL MARINE OBSERVATIONS STATION/POSITION TIME TEMP WIND PRES WAVE AIR SEA DIR/SP/G HT/PER (UTC) (F) (DEG/KT/KT) (MB) (FT/S) MOUNT DESERT ROC 0500 55 120/ 3/ 3 1027.2R MATINICUS ROCK 0400 56 190/ 9/ 10 1026.0R ISLE OF SHOALS 0400 63 260/ 7/ 8 1026.1R JEFFREYS LEDGE 0406 58 N/A 2/ 4 GEORGES BANK BUO 0350 58 58 1028.2 2/ 6 $$ .............KEY.............. WCI - WIND CHILL TC - TEMPERATURE IN CELSIUS VSB - VISIBILITY IN MILES HX - HEAT INDEX FAIR- INDICATES FEW OR NO CLOUDS BELOW 12,000 FT, WITH NO SIGNIFICANT WEATHER AND/OR OBSTRUCTIONS TO VISIBILITY.

USA.gov is the U.S. government's official web portal to all federal, state and local government web resources and services.